Simultaneous Nadir Overpasses (SNOs) Predictions

Prediction of SNOs between AQUA and METOP-B Satellite Orbit:

Table of predicted SNOs for the next 14.0 days since TLE Epoch: 10/11/2019
Index Date (AQUA) Time (AQUA) Lat,Lon (AQUA) SZA (AQUA ) Date (METOP-B) Time (METOP-B) Lat,Lon (METOP-B) SZA (METOP-B ) Distance(km) Time Diff (sec)
1 10/13/2019 07:22:33 73.86, 63.50 81.49 10/13/2019 07:21:42 73.85, 63.61 81.47 3.76 51
2 10/13/2019 08:12:00 -73.92,-128.97 98.45 10/13/2019 08:12:23 -73.91,-128.93 98.46 1.64 23
3 10/16/2019 02:56:48 73.86, 129.95 82.53 10/16/2019 02:56:03 73.87, 130.06 82.54 3.67 45
4 10/16/2019 03:46:15 -73.90, -62.51 97.42 10/16/2019 03:46:44 -73.93, -62.48 97.40 2.65 29
5 10/18/2019 22:31:02 73.86,-163.62 83.55 10/18/2019 22:30:24 73.83,-163.61 83.53 2.93 38
6 10/18/2019 23:20:29 -73.90, 3.94 96.40 10/18/2019 23:21:05 -73.89, 3.86 96.40 2.63 36
7 10/21/2019 18:05:17 73.87, -97.19 84.57 10/21/2019 18:04:45 73.85, -97.16 84.55 2.13 32
8 10/21/2019 18:54:44 -73.90, 70.38 95.39 10/21/2019 18:55:26 -73.91, 70.30 95.38 2.68 42
9 10/24/2019 13:39:32 73.88, -30.78 85.57 10/24/2019 13:39:06 73.86, -30.72 85.56 2.42 26
10 10/24/2019 14:28:59 -73.90, 136.80 94.40 10/24/2019 14:29:47 -73.92, 136.74 94.38 2.82 48




NCC Satellite Simultaneous Nadir Overpasses (SNOs) Prediction Service
